Simultaneous Nadir Overpasses (SNOs) Predictions

Prediction of SNOs between NPP and TERRA Satellite Orbit:

Table of predicted SNOs for the next 14.0 days since TLE Epoch: 10/24/2016
Index Date (NPP) Time (NPP) Lat,Lon (NPP) SZA (NPP ) Date (TERRA) Time (TERRA) Lat,Lon (TERRA) SZA (TERRA ) Distance(km) Time Diff (sec)
1 10/25/2016 10:39:55 68.42, 18.74 80.65 10/25/2016 10:40:29 68.44, 18.76 80.67 2.24 34
2 10/25/2016 11:30:36 -68.29,-173.78 99.47 10/25/2016 11:30:00 -68.28,-173.80 99.49 1.69 36
3 10/28/2016 02:06:16 -69.05, -33.65 97.84 10/28/2016 02:07:26 -68.93, -32.40 97.94 51.48 70
4 10/28/2016 02:56:50 68.38, 134.54 81.52 10/28/2016 02:57:01 68.37, 134.55 81.51 1.94 11
5 10/28/2016 03:47:31 -68.25, -57.97 98.60 10/28/2016 03:46:31 -68.27, -57.94 98.59 2.09 60
6 10/30/2016 18:23:01 -68.48, 82.87 97.52 10/30/2016 18:24:06 -68.47, 82.89 97.53 1.70 65
7 10/30/2016 19:13:45 68.36,-109.65 82.38 10/30/2016 19:13:33 68.35,-109.60 82.37 2.25 12
8 10/30/2016 20:04:20 -67.90, 58.24 98.07 10/30/2016 20:03:08 -67.98, 57.59 98.01 28.91 72
9 11/02/2016 10:39:56 -68.45,-161.32 96.69 11/02/2016 10:40:39 -68.45,-161.26 96.69 2.39 43
10 11/02/2016 11:30:39 68.28, 6.21 83.15 11/02/2016 11:30:07 68.27, 6.17 83.15 1.65 32
11 11/05/2016 02:06:23 69.27, 146.02 84.93 11/05/2016 02:07:31 69.19, 147.89 84.88 74.43 68
12 11/05/2016 02:56:49 -68.37, -45.45 95.95 11/05/2016 02:57:13 -68.37, -45.50 95.95 1.83 24
13 11/05/2016 03:47:33 68.25, 122.00
